Terminal Aerodrome Forecast
Issued by NWS

Home | Current Version | Previous Version | Text Only | Print | Product List | Glossary On
Versions: 1 2 3 4 5 6 7 8 9 10 11 12 13 14 15 16 17 18 19 20 21 22 23 24 25 26 27 28 29 30 31 32 33 34 35 36 37 38 39 40 41 42
610
FTUS43 KGLD 292041 AAA
TAFMCK
TAF AMD
KMCK 292041Z 2921/3018 VRB06KT P6SM VCSH BKN100
     FM292200 13008KT P6SM -SHRA VCTS BKN040CB
     FM300400 VRB04KT P6SM VCSH SCT015 BKN035
     FM301000 VRB03KT 6SM BR SCT005 BKN015=

USA.gov is the U.S. government's official web portal to all federal, state and local government web resources and services.